Regional Weather Roundup
Issued by NWS

Home | Current Version | Previous Version | Text Only | Print | Product List | Glossary Off
Versions: 1 2 3 4 5 6 7 8 9 10 11 12 13 14 15 16 17 18 19 20 21 22 23 24 25 26 27 28 29 30 31 32 33 34 35 36 37 38 39 40 41 42 43 44 45 46 47 48 49 50

000
ASUS45 KPSR 011510
RWRAZ

ARIZONA REGIONAL HOURLY WEATHER ROUNDUP
NATIONAL WEATHER SERVICE PHOENIX AZ
800 AM MST SUN FEB 01 2015

NOTE: FAIR INDICATES FEW OR NO CLOUDS BELOW 12,000 FEET WITH NO
SIGNIFICANT WEATHER AND/OR OBSTRUCTIONS TO VISIBILITY.

AZZ001>003-036-011600-
NORTHWEST ARIZONA

CITY           SKY/WX    TMP DP  RH WIND       PRES   REMARKS
BULLHEAD CITY  LGT RAIN  57  34  41 N23       30.11R
KINGMAN        SUNNY     38  34  85 E8        30.15R WCI  32
$$

AZZ004>008-015-016-018-011600-
NORTH CENTRAL ARIZONA

CITY           SKY/WX    TMP DP  RH WIND       PRES   REMARKS
GRAND CANYON   SUNNY     20  18  92 NE5       30.19R WCI  13
PRESCOTT       SUNNY     33  30  88 SW5       30.16R WCI  29
FLAGSTAFF      SUNNY     32  24  72 SE8       30.15R WCI  25
PAYSON         SUNNY     37  32  81 CALM      30.14R
$$

AZZ009>014-017-011600-
NORTHEAST ARIZONA

CITY           SKY/WX    TMP DP  RH WIND       PRES   REMARKS
WINSLOW        CLOUDY    31  30  96 CALM      30.17R
SAINT JOHNS    SUNNY     33  31  92 CALM      30.13R
WINDOW ROCK    SUNNY     28  21  75 N12       30.13R WCI  18
SHOW LOW       CLOUDY    32  28  86 N8        30.16R WCI  25
$$

AZZ023-011600-
GREATER PHOENIX AREA

CITY           SKY/WX    TMP DP  RH WIND       PRES   REMARKS
PHOENIX        FOG       51  51 100 N3        30.06R VSB 1/4
BUCKEYE          N/A     46  46 100 E3        30.08R VSB<1/4
GLENDALE       FOG       48  48 100 CALM      30.08R VSB 1/4
LUKE AFB       FOG       47  47  99 NW1       30.06R VSB<1/4
DEER VALLEY    FOG       50  48  93 CALM      30.06R VSB 1/4
SCOTTSDALE     PTSUNNY   48  46  93 CALM      30.07R FOG
MESA-FALCON    MOSUNNY   46  46 100 CALM      30.06R VSB 1/4
MESA-GATEWAY   FOG       46  46 100 VRB5      30.08R VSB 1/8
CHANDLER         N/A     48  48 100 CALM      30.07R
$$

AZZ027-028-011600-
SOUTHWEST MARICOPA COUNTY AND PINAL COUNTY

CITY           SKY/WX    TMP DP  RH WIND       PRES   REMARKS
CASA GRANDE    CLOUDY    45  43  93 CALM      30.07R VSB<1/4
GILA BEND      FAIR      45  46 100 E2        30.06R
$$

AZZ503-504-507>509-011600-
SOUTHEAST ARIZONA

CITY           SKY/WX    TMP DP  RH WIND       PRES   REMARKS
TUCSON         FOG       49  47  93 S3        30.08R VSB 1/4
DAVIS-MONTHAN  FOG       48  48 100 S5        30.06R VSB 1/2
RYAN FIELD     FOG       50  50 100 CALM      30.08R VSB 1
NOGALES        CLOUDY    42  40  92 CALM      30.07R
SIERRA VISTA   CLOUDY    44  41  89 CALM      30.08R
DOUGLAS        MOSUNNY   38  37  97 CALM      30.08R
SAFFORD        FOG       46  45  96 W3        30.06R VSB<1/4
$$

AZZ020-021-025-026-031-011600-
SOUTHWEST ARIZONA

CITY           SKY/WX    TMP DP  RH WIND       PRES   REMARKS
YUMA           SUNNY     54  51  90 NE6       30.07R
$$

CAZ031-033-041-043-047-048-061-011600-
SOUTHERN CALIFORNIA

CITY           SKY/WX    TMP DP  RH WIND       PRES   REMARKS
DOWNTOWN L.A.  SUNNY     50  45  83 CALM      30.06R
L.A. AIRPORT   SUNNY     51  47  86 E3        30.07R
SAN DIEGO      MOSUNNY   54  48  80 CALM      30.08R
BURBANK        SUNNY     48  40  73 CALM      30.06R
ONTARIO        MOSUNNY   49  41  74 NE3       30.08R
RIVERSIDE      SUNNY     48  41  76 VRB3      30.09R
PALM SPRINGS   SUNNY     56  38  50 NE6       30.08R
EL CENTRO NAS  SUNNY     50  41  71 SW8       30.05R
IMPERIAL       SUNNY     49  40  71 SW5       30.05R
BLYTHE         SUNNY     52  43  71 NW10      30.07R
NEEDLES        SUNNY     55  35  47 NW5       30.11R
$$

NVZ020-UTZ003-011600-
SOUTHERN NEVADA-UTAH

CITY           SKY/WX    TMP DP  RH WIND       PRES   REMARKS
LAS VEGAS      SUNNY     44  36  73 SW7       30.14R
SALT LAKE CITY MOSUNNY   28  24  85 SE6       30.21S WCI  22
$$

NMZ009-TXZ055-011600-
NEW MEXICO-WEST TEXAS

CITY           SKY/WX    TMP DP  RH WIND       PRES   REMARKS
ALBUQUERQUE    MOSUNNY   34  30  85 W3        30.10R
EL PASO        MOSUNNY   44  40  85 NE9       30.04R
$$


........................KEY........................
SKY/WX - SKY CONDITION/WEATHER
TMP    - TEMPERATURE IN FAHRENHEIT
DP     - DEW POINT IN FAHRENHEIT
RH     - RELATIVE HUMIDITY IN PERCENT
WIND   - DIRECTION AND SPEED IN MILES PER HOUR (MPH)
VRB    - VARIABLE WIND DIRECTION
PRES   - MEAN SEA LEVEL PRESSURE IN INCHES OF MERCURY
         F - FALLING PRESSURE   R - RISING PRESSURE
         S - STEADY PRESSURE
VSB    - VISIBILITY IN MILES
HX     - HEAT INDEX IN FAHRENHEIT
WCI    - WIND CHILL INDEX IN FAHRENHEIT
TC     - TEMPERATURE IN CELSIUS WHICH IS ALSO KNOWN AS
         TEMPERATURE IN CENTIGRADE
AFB    - AIR FORCE BASE
         LUKE AFB IS LUKE AIR FORCE BASE
         DAVIS-MONTHAN IS DAVIS-MONTHAN AIR FORCE BASE
NAS    - NAVAL AIR STATION
         EL CENTRO NAS IS EL CENTRO NAVAL AIR STATION
N/A    - NOT AVAILABLE


USA.gov is the U.S. government's official web portal to all federal, state and local government web resources and services.